Time,TemperatureF,DewpointF,PressureIn,WindDirection,WindDirectionDegrees,WindSpeedMPH,WindSpeedGustMPH,Humidity,HourlyPrecipIn,Conditions,Clouds,dailyrainin,SoftwareType,DateUTC
2013-02-28 00:01:00,15.0,0.0,-100.00,SW,217,11.0,11.0,44,-99.99,,,-99.99,,2013-02-28 07:01:00,
2013-02-28 00:11:00,16.0,-2.0,-100.00,SW,217,10.0,10.0,44,-99.99,,,-99.99,,2013-02-28 07:11:00,
2013-02-28 00:21:00,16.0,-2.0,-100.00,SW,217,7.0,9.0,44,-99.99,,,-99.99,,2013-02-28 07:21:00,
2013-02-28 00:31:00,15.0,-2.0,-100.00,SW,217,7.0,7.0,44,-99.99,,,-99.99,,2013-02-28 07:31:00,
2013-02-28 00:41:00,16.0,-2.0,-100.00,SW,217,7.0,7.0,44,-99.99,,,-99.99,,2013-02-28 07:41:00,
2013-02-28 00:51:00,16.0,-2.0,-100.00,SW,217,7.0,7.0,44,-99.99,,,-99.99,,2013-02-28 07:51:00,
2013-02-28 01:01:00,17.0,-2.0,-100.00,SW,217,7.0,0.0,42,-99.99,,,-99.99,,2013-02-28 08:01:00,
2013-02-28 01:11:00,15.0,-1.0,-100.00,SW,217,7.0,7.0,44,-99.99,,,-99.99,,2013-02-28 08:11:00,
2013-02-28 01:22:00,15.0,-1.0,-100.00,SW,217,1.0,1.0,44,-99.99,,,-99.99,,2013-02-28 08:22:00,
2013-02-28 01:32:00,16.0,-4.0,-100.00,SW,217,1.0,5.0,42,-99.99,,,-99.99,,2013-02-28 08:32:00,
2013-02-28 01:42:00,13.0,0.0,-100.00,SW,217,4.0,6.0,48,-99.99,,,-99.99,,2013-02-28 08:42:00,
2013-02-28 01:52:00,13.0,0.0,-100.00,SW,217,4.0,6.0,48,-99.99,,,-99.99,,2013-02-28 08:52:00,
2013-02-28 02:03:00,14.0,-3.0,-100.00,SW,217,4.0,7.0,46,-99.99,,,-99.99,,2013-02-28 09:03:00,
2013-02-28 02:11:00,16.0,-5.0,-100.00,West,262,3.0,8.0,40,-99.99,,,-99.99,,2013-02-28 09:11:00,
2013-02-28 02:21:00,16.0,-5.0,-100.00,West,262,3.0,8.0,40,-99.99,,,-99.99,,2013-02-28 09:21:00,
2013-02-28 02:32:00,17.0,-4.0,-100.00,West,262,3.0,6.0,37,-99.99,,,-99.99,,2013-02-28 09:32:00,
2013-02-28 02:41:00,17.0,-4.0,-100.00,West,262,3.0,6.0,37,-99.99,,,-99.99,,2013-02-28 09:41:00,
2013-02-28 02:52:00,17.0,-4.0,-100.00,West,262,3.0,6.0,37,-99.99,,,-99.99,,2013-02-28 09:52:00,
2013-02-28 03:01:00,15.0,-3.0,-100.00,West,274,2.0,3.0,39,-99.99,,,-99.99,,2013-02-28 10:01:00,
2013-02-28 03:11:00,13.0,-2.0,-100.00,West,274,2.0,7.0,46,-99.99,,,-99.99,,2013-02-28 10:11:00,
2013-02-28 03:21:00,13.0,-2.0,-100.00,SW,234,4.0,7.0,46,-99.99,,,-99.99,,2013-02-28 10:21:00,
2013-02-28 03:32:00,15.0,-4.0,-100.00,SW,228,9.0,9.0,43,-99.99,,,-99.99,,2013-02-28 10:32:00,
2013-02-28 03:42:00,13.0,-3.0,-100.00,SW,234,7.0,8.0,44,-99.99,,,-99.99,,2013-02-28 10:42:00,
2013-02-28 03:52:00,13.0,-3.0,-100.00,SW,234,5.0,8.0,44,-99.99,,,-99.99,,2013-02-28 10:52:00,
2013-02-28 04:01:00,15.0,-6.0,-100.00,SW,234,8.0,8.0,41,-99.99,,,-99.99,,2013-02-28 11:01:00,
2013-02-28 04:11:00,15.0,-6.0,-100.00,SW,228,8.0,8.0,41,-99.99,,,-99.99,,2013-02-28 11:11:00,
2013-02-28 04:21:00,17.0,-5.0,-100.00,SW,217,11.0,11.0,37,-99.99,,,-99.99,,2013-02-28 11:21:00,
2013-02-28 04:32:00,15.0,-3.0,-100.00,SSW,211,11.0,11.0,39,-99.99,,,-99.99,,2013-02-28 11:32:00,
2013-02-28 04:42:00,17.0,-7.0,-100.00,SW,217,10.0,10.0,34,-99.99,,,-99.99,,2013-02-28 11:42:00,
2013-02-28 04:52:00,17.0,-7.0,-100.00,SW,217,9.0,10.0,34,-99.99,,,-99.99,,2013-02-28 11:52:00,
2013-02-28 05:01:00,16.0,-4.0,-100.00,SW,217,11.0,11.0,35,-99.99,,,-99.99,,2013-02-28 12:01:00,
2013-02-28 05:11:00,15.0,-4.0,-100.00,SW,217,9.0,9.0,38,-99.99,,,-99.99,,2013-02-28 12:11:00,
2013-02-28 05:21:00,15.0,-4.0,-100.00,SW,217,8.0,9.0,38,-99.99,,,-99.99,,2013-02-28 12:21:00,
2013-02-28 05:32:00,15.0,-4.0,-100.00,SSW,211,7.0,7.0,38,-99.99,,,-99.99,,2013-02-28 12:32:00,
2013-02-28 05:42:00,17.0,-5.0,-100.00,SSW,211,7.0,8.0,37,-99.99,,,-99.99,,2013-02-28 12:42:00,
2013-02-28 05:52:00,17.0,-5.0,-100.00,SSW,211,9.0,9.0,37,-99.99,,,-99.99,,2013-02-28 12:52:00,
2013-02-28 06:01:00,15.0,-2.0,-100.00,SSW,211,9.0,9.0,41,-99.99,,,-99.99,,2013-02-28 13:01:00,
2013-02-28 06:11:00,15.0,-2.0,-100.00,SSW,211,8.0,8.0,41,-99.99,,,-99.99,,2013-02-28 13:11:00,
2013-02-28 06:21:00,15.0,-2.0,-100.00,SSW,211,10.0,10.0,41,-99.99,,,-99.99,,2013-02-28 13:21:00,
2013-02-28 06:32:00,17.0,-5.0,-100.00,SSW,211,11.0,11.0,37,-99.99,,,-99.99,,2013-02-28 13:32:00,
2013-02-28 06:42:00,17.0,-4.0,-100.00,SSW,211,10.0,10.0,37,-99.99,,,-99.99,,2013-02-28 13:42:00,
2013-02-28 06:52:00,17.0,-4.0,-100.00,SSW,199,10.0,10.0,37,-99.99,,,-99.99,,2013-02-28 13:52:00,
2013-02-28 07:01:00,16.0,-3.0,-100.00,SSW,199,11.0,11.0,39,-99.99,,,-99.99,,2013-02-28 14:01:00,
2013-02-28 07:11:00,17.0,-3.0,-100.00,SSW,199,14.0,14.0,39,-99.99,,,-99.99,,2013-02-28 14:11:00,
2013-02-28 07:21:00,17.0,-3.0,-100.00,SSW,194,14.0,14.0,39,-99.99,,,-99.99,,2013-02-28 14:21:00,
2013-02-28 07:32:00,17.0,-3.0,-100.00,SSW,199,13.0,13.0,39,-99.99,,,-99.99,,2013-02-28 14:32:00,
2013-02-28 07:42:00,19.0,-4.0,-100.00,SSW,199,14.0,14.0,36,-99.99,,,-99.99,,2013-02-28 14:42:00,
2013-02-28 07:52:00,19.0,-4.0,-100.00,SSW,194,15.0,15.0,36,-99.99,,,-99.99,,2013-02-28 14:52:00,
2013-02-28 08:02:00,20.0,-3.0,-100.00,SSW,194,14.0,14.0,35,-99.99,,,-99.99,,2013-02-28 15:02:00,
2013-02-28 08:11:00,20.0,-3.0,-100.00,SSW,199,12.0,12.0,35,-99.99,,,-99.99,,2013-02-28 15:11:00,
2013-02-28 08:21:00,20.0,-3.0,-100.00,SSW,199,11.0,12.0,35,-99.99,,,-99.99,,2013-02-28 15:21:00,
2013-02-28 08:32:00,21.0,-1.0,-100.00,SSW,205,11.0,11.0,35,-99.99,,,-99.99,,2013-02-28 15:32:00,
2013-02-28 08:41:00,22.0,-2.0,-100.00,SSW,199,11.0,11.0,33,-99.99,,,-99.99,,2013-02-28 15:41:00,
2013-02-28 08:52:00,22.0,-2.0,-100.00,SSW,205,9.0,10.0,33,-99.99,,,-99.99,,2013-02-28 15:52:00,
2013-02-28 09:01:00,24.0,-2.0,-100.00,SSW,205,8.0,8.0,30,-99.99,,,-99.99,,2013-02-28 16:01:00,
2013-02-28 09:11:00,26.0,-2.0,-100.00,SSW,205,8.0,8.0,27,-99.99,,,-99.99,,2013-02-28 16:11:00,
2013-02-28 09:22:00,26.0,-2.0,-100.00,SSW,205,8.0,8.0,27,-99.99,,,-99.99,,2013-02-28 16:22:00,
2013-02-28 09:32:00,29.0,-3.0,-100.00,SSW,205,8.0,8.0,24,-99.99,,,-99.99,,2013-02-28 16:32:00,
2013-02-28 09:42:00,32.0,-4.0,-100.00,SSW,205,8.0,8.0,20,-99.99,,,-99.99,,2013-02-28 16:42:00,
2013-02-28 09:52:00,32.0,-4.0,-100.00,SSW,205,8.0,8.0,20,-99.99,,,-99.99,,2013-02-28 16:52:00,
2013-02-28 10:01:00,34.0,0.0,-100.00,SSW,205,8.0,8.0,20,-99.99,,,-99.99,,2013-02-28 17:01:00,
2013-02-28 10:11:00,36.0,-1.0,-100.00,SSW,205,8.0,8.0,18,-99.99,,,-99.99,,2013-02-28 17:11:00,
2013-02-28 10:21:00,36.0,-1.0,-100.00,SSW,205,8.0,8.0,18,-99.99,,,-99.99,,2013-02-28 17:21:00,
2013-02-28 10:32:00,36.0,2.0,-100.00,NNW,342,1.0,2.0,19,-99.99,,,-99.99,,2013-02-28 17:32:00,
2013-02-28 10:42:00,33.0,8.0,-100.00,NNW,342,9.0,9.0,28,-99.99,,,-99.99,,2013-02-28 17:42:00,
2013-02-28 10:52:00,33.0,8.0,-100.00,NNW,342,9.0,9.0,28,-99.99,,,-99.99,,2013-02-28 17:52:00,
2013-02-28 11:02:00,35.0,4.0,-100.00,NNW,348,9.0,9.0,26,-99.99,,,-99.99,,2013-02-28 18:02:00,
2013-02-28 11:11:00,36.0,4.0,-100.00,NNW,348,9.0,9.0,24,-99.99,,,-99.99,,2013-02-28 18:11:00,
2013-02-28 11:22:00,36.0,4.0,-100.00,NNW,348,9.0,9.0,24,-99.99,,,-99.99,,2013-02-28 18:22:00,
2013-02-28 11:32:00,38.0,7.0,-100.00,NNW,348,9.0,9.0,24,-99.99,,,-99.99,,2013-02-28 18:32:00,
2013-02-28 11:42:00,36.0,8.0,-100.00,NNW,348,9.0,9.0,26,-99.99,,,-99.99,,2013-02-28 18:42:00,
2013-02-28 11:52:00,36.0,8.0,-100.00,NNW,348,9.0,9.0,26,-99.99,,,-99.99,,2013-02-28 18:52:00,
2013-02-28 12:01:00,35.0,5.0,-100.00,North,6,1.0,2.0,23,-99.99,,,-99.99,,2013-02-28 19:01:00,
2013-02-28 12:11:00,33.0,8.0,-100.00,North,6,1.0,3.0,30,-99.99,,,-99.99,,2013-02-28 19:11:00,
2013-02-28 12:21:00,33.0,8.0,-100.00,North,6,1.0,3.0,30,-99.99,,,-99.99,,2013-02-28 19:21:00,
2013-02-28 12:32:00,34.0,4.0,-100.00,North,6,1.0,3.0,27,-99.99,,,-99.99,,2013-02-28 19:32:00,
2013-02-28 12:41:00,35.0,6.0,-100.00,North,6,1.0,6.0,28,-99.99,,,-99.99,,2013-02-28 19:41:00,
2013-02-28 12:51:00,35.0,6.0,-100.00,North,6,1.0,6.0,28,-99.99,,,-99.99,,2013-02-28 19:51:00,
2013-02-28 13:01:00,35.0,5.0,-100.00,North,6,1.0,4.0,26,-99.99,,,-99.99,,2013-02-28 20:01:00,
2013-02-28 13:12:00,34.0,5.0,-100.00,North,11,1.0,6.0,26,-99.99,,,-99.99,,2013-02-28 20:12:00,
2013-02-28 13:21:00,34.0,5.0,-100.00,North,11,1.0,6.0,26,-99.99,,,-99.99,,2013-02-28 20:21:00,
2013-02-28 13:32:00,34.0,5.0,-100.00,North,11,1.0,6.0,26,-99.99,,,-99.99,,2013-02-28 20:32:00,
2013-02-28 13:41:00,34.0,8.0,-100.00,North,11,1.0,3.0,30,-99.99,,,-99.99,,2013-02-28 20:41:00,
2013-02-28 13:52:00,34.0,8.0,-100.00,North,11,1.0,3.0,30,-99.99,,,-99.99,,2013-02-28 20:52:00,
2013-02-28 14:01:00,34.0,5.0,-100.00,North,11,1.0,4.0,26,-99.99,,,-99.99,,2013-02-28 21:01:00,
2013-02-28 14:11:00,34.0,6.0,-100.00,North,11,1.0,4.0,28,-99.99,,,-99.99,,2013-02-28 21:11:00,
2013-02-28 14:22:00,34.0,6.0,-100.00,North,11,1.0,4.0,28,-99.99,,,-99.99,,2013-02-28 21:22:00,
2013-02-28 14:32:00,34.0,6.0,-100.00,North,11,1.0,4.0,28,-99.99,,,-99.99,,2013-02-28 21:32:00,
2013-02-28 14:41:00,36.0,5.0,-100.00,North,11,1.0,4.0,27,-99.99,,,-99.99,,2013-02-28 21:41:00,
2013-02-28 14:52:00,36.0,5.0,-100.00,North,11,1.0,4.0,27,-99.99,,,-99.99,,2013-02-28 21:52:00,
2013-02-28 15:01:00,34.0,9.0,-100.00,North,11,1.0,0.0,31,-99.99,,,-99.99,,2013-02-28 22:01:00,
2013-02-28 15:11:00,32.0,7.0,-100.00,North,11,1.0,0.0,30,-99.99,,,-99.99,,2013-02-28 22:11:00,
2013-02-28 15:21:00,32.0,7.0,-100.00,North,11,-999.0,0.0,30,-99.99,,,-99.99,,2013-02-28 22:21:00,
2013-02-28 15:32:00,36.0,2.0,-100.00,North,11,-999.0,0.0,23,-99.99,,,-99.99,,2013-02-28 22:32:00,
2013-02-28 15:41:00,40.0,2.0,-100.00,North,11,-999.0,0.0,20,-99.99,,,-99.99,,2013-02-28 22:41:00,
2013-02-28 15:52:00,40.0,2.0,-100.00,North,11,-999.0,0.0,20,-99.99,,,-99.99,,2013-02-28 22:52:00,
2013-02-28 16:01:00,41.0,5.0,-100.00,North,11,-999.0,0.0,20,-99.99,,,-99.99,,2013-02-28 23:01:00,
2013-02-28 16:11:00,34.0,11.0,-100.00,North,11,-999.0,0.0,27,-99.99,,,-99.99,,2013-02-28 23:11:00,
2013-02-28 16:22:00,34.0,11.0,-100.00,North,11,-999.0,0.0,27,-99.99,,,-99.99,,2013-02-28 23:22:00,
2013-02-28 16:31:00,31.0,10.0,-100.00,North,353,0.0,2.0,34,-99.99,,,-99.99,,2013-02-28 23:31:00,
2013-02-28 16:41:00,29.0,8.0,-100.00,North,353,7.0,8.0,37,-99.99,,,-99.99,,2013-02-28 23:41:00,
2013-02-28 16:52:00,29.0,8.0,-100.00,North,353,10.0,10.0,37,-99.99,,,-99.99,,2013-02-28 23:52:00,
2013-02-28 17:01:00,29.0,9.0,-100.00,NNW,348,11.0,11.0,42,-99.99,,,-99.99,,2013-03-01 00:01:00,
2013-02-28 17:11:00,29.0,10.0,-100.00,North,353,12.0,14.0,44,-99.99,,,-99.99,,2013-03-01 00:11:00,
2013-02-28 17:22:00,29.0,10.0,-100.00,North,353,12.0,14.0,44,-99.99,,,-99.99,,2013-03-01 00:22:00,
2013-02-28 17:32:00,28.0,11.0,-100.00,NNW,348,10.0,11.0,48,-99.99,,,-99.99,,2013-03-01 00:32:00,
2013-02-28 17:41:00,28.0,9.0,-100.00,NNW,336,10.0,15.0,44,-99.99,,,-99.99,,2013-03-01 00:41:00,
2013-02-28 17:51:00,28.0,9.0,-100.00,NW,319,11.0,15.0,44,-99.99,,,-99.99,,2013-03-01 00:51:00,
2013-02-28 18:01:00,27.0,10.0,-100.00,NW,308,10.0,13.0,47,-99.99,,,-99.99,,2013-03-01 01:01:00,
2013-02-28 18:11:00,26.0,11.0,-100.00,NW,308,10.0,10.0,50,-99.99,,,-99.99,,2013-03-01 01:11:00,
2013-02-28 18:21:00,26.0,11.0,-100.00,WNW,285,4.0,10.0,50,-99.99,,,-99.99,,2013-03-01 01:21:00,
2013-02-28 18:31:00,26.0,9.0,-100.00,NW,319,5.0,8.0,48,-99.99,,,-99.99,,2013-03-01 01:31:00,
2013-02-28 18:42:00,25.0,10.0,-100.00,NNW,336,8.0,11.0,52,-99.99,,,-99.99,,2013-03-01 01:42:00,
2013-02-28 18:51:00,25.0,10.0,-100.00,NNW,348,14.0,14.0,52,-99.99,,,-99.99,,2013-03-01 01:51:00,
2013-02-28 19:01:00,24.0,9.0,-100.00,NNW,336,14.0,14.0,50,-99.99,,,-99.99,,2013-03-01 02:01:00,
2013-02-28 19:11:00,24.0,9.0,-100.00,NNW,336,10.0,13.0,52,-99.99,,,-99.99,,2013-03-01 02:11:00,
2013-02-28 19:21:00,24.0,9.0,-100.00,NNW,336,10.0,13.0,52,-99.99,,,-99.99,,2013-03-01 02:21:00,
2013-02-28 19:31:00,24.0,9.0,-100.00,NNW,336,11.0,11.0,52,-99.99,,,-99.99,,2013-03-01 02:31:00,
2013-02-28 19:42:00,24.0,10.0,-100.00,NNW,331,10.0,11.0,54,-99.99,,,-99.99,,2013-03-01 02:42:00,
2013-02-28 19:52:00,24.0,10.0,-100.00,NNW,342,12.0,12.0,54,-99.99,,,-99.99,,2013-03-01 02:52:00,
2013-02-28 20:01:00,24.0,9.0,-100.00,NNW,331,11.0,13.0,52,-99.99,,,-99.99,,2013-03-01 03:01:00,
2013-02-28 20:11:00,24.0,9.0,-100.00,NNW,331,12.0,12.0,52,-99.99,,,-99.99,,2013-03-01 03:11:00,
2013-02-28 20:21:00,24.0,9.0,-100.00,NNW,331,12.0,12.0,52,-99.99,,,-99.99,,2013-03-01 03:21:00,
2013-02-28 20:32:00,24.0,10.0,-100.00,NNW,336,10.0,12.0,55,-99.99,,,-99.99,,2013-03-01 03:32:00,
2013-02-28 20:41:00,24.0,9.0,-100.00,NNW,342,12.0,12.0,52,-99.99,,,-99.99,,2013-03-01 03:41:00,
2013-02-28 20:51:00,24.0,9.0,-100.00,NNW,342,13.0,13.0,52,-99.99,,,-99.99,,2013-03-01 03:51:00,
2013-02-28 21:01:00,24.0,9.0,-100.00,NNW,342,13.0,13.0,52,-99.99,,,-99.99,,2013-03-01 04:01:00,
2013-02-28 21:11:00,24.0,9.0,-100.00,NNW,331,13.0,15.0,51,-99.99,,,-99.99,,2013-03-01 04:11:00,
2013-02-28 21:21:00,24.0,9.0,-100.00,WNW,296,10.0,15.0,51,-99.99,,,-99.99,,2013-03-01 04:21:00,
2013-02-28 21:32:00,24.0,10.0,-100.00,WNW,285,6.0,10.0,53,-99.99,,,-99.99,,2013-03-01 04:32:00,
2013-02-28 21:42:00,24.0,10.0,-100.00,WNW,285,6.0,10.0,53,-99.99,,,-99.99,,2013-03-01 04:42:00,
2013-02-28 21:51:00,23.0,8.0,-100.00,WNW,285,5.0,7.0,53,-99.99,,,-99.99,,2013-03-01 04:51:00,
2013-02-28 22:02:00,23.0,9.0,-100.00,WNW,285,5.0,7.0,55,-99.99,,,-99.99,,2013-03-01 05:02:00,
2013-02-28 22:11:00,23.0,8.0,-100.00,WNW,285,6.0,7.0,53,-99.99,,,-99.99,,2013-03-01 05:11:00,
2013-02-28 22:22:00,23.0,8.0,-100.00,WNW,285,6.0,7.0,53,-99.99,,,-99.99,,2013-03-01 05:22:00,
2013-02-28 22:32:00,22.0,9.0,-100.00,WNW,285,6.0,6.0,55,-99.99,,,-99.99,,2013-03-01 05:32:00,
2013-02-28 22:42:00,24.0,7.0,-100.00,WNW,285,6.0,6.0,51,-99.99,,,-99.99,,2013-03-01 05:42:00,
2013-02-28 22:52:00,24.0,7.0,-100.00,WNW,285,6.0,6.0,51,-99.99,,,-99.99,,2013-03-01 05:52:00,
2013-02-28 23:02:00,24.0,9.0,-100.00,West,274,3.0,7.0,52,-99.99,,,-99.99,,2013-03-01 06:02:00,
2013-02-28 23:11:00,24.0,9.0,-100.00,West,274,3.0,8.0,52,-99.99,,,-99.99,,2013-03-01 06:11:00,
2013-02-28 23:21:00,24.0,9.0,-100.00,West,262,4.0,8.0,52,-99.99,,,-99.99,,2013-03-01 06:21:00,
2013-02-28 23:32:00,22.0,9.0,-100.00,West,262,4.0,9.0,54,-99.99,,,-99.99,,2013-03-01 06:32:00,
2013-02-28 23:42:00,22.0,9.0,-100.00,West,262,4.0,7.0,54,-99.99,,,-99.99,,2013-03-01 06:42:00,
2013-02-28 23:52:00,22.0,9.0,-100.00,WSW,245,5.0,7.0,54,-99.99,,,-99.99,,2013-03-01 06:52:00,